This is the latest recevied weather packets stored in our database for station/object KG7DQI-13. If no packets are shown the sender has not sent any weather packets the latest 10 day(s).
| Time | Temp. | Humidity | Pressure | Rain* | Wind** | Luminosity | Snow |
|---|---|---|---|---|---|---|---|
| 1777709308 | 13.89° C | 69% | 913.2 hPa | 0 mm | - | 0 W/m² | - |
| 1777708419 | 15° C | 66% | 913.3 hPa | 0 mm | - | 0 W/m² | - |
| 1777707530 | 15.56° C | 65% | 913.3 hPa | 0 mm | - | 0 W/m² | - |
| 1777706616 | 15.56° C | 65% | 913.1 hPa | 0 mm | - | 0 W/m² | - |
| 1777705682 | 16.11° C | 63% | 913.4 hPa | 0 mm | - | 0 W/m² | - |
| 1777704810 | 16.11° C | 64% | 913.9 hPa | 0 mm | - | 0 W/m² | - |
| 1777703940 | 16.11° C | 62% | 914.1 hPa | 0 mm | - | 0 W/m² | - |
| 1777703023 | 16.11° C | 53% | 913.7 hPa | 0 mm | - | 0 W/m² | - |
| 1777702140 | 16.67° C | 52% | 913.3 hPa | 0 mm | - | 0 W/m² | - |
| 1777701241 | 16.67° C | 52% | 913 hPa | 0 mm | - | 0 W/m² | - |
| 1777700306 | 16.11° C | 53% | 913 hPa | 0 mm | - | 0 W/m² | - |
| 1777699423 | 16.11° C | 55% | 912.9 hPa | 0 mm | - | 0 W/m² | - |
| 1777698521 | 17.22° C | 54% | 912.9 hPa | 0 mm | - | 0 W/m² | - |
| 1777697658 | 17.78° C | 57% | 912.7 hPa | 0 mm | - | 0 W/m² | - |
| 1777696747 | 17.78° C | 57% | 912.7 hPa | 0 mm | - | 0 W/m² | - |
| 1777695841 | 17.78° C | 49% | 912.7 hPa | 0 mm | - | 0 W/m² | - |
| 1777694939 | 17.78° C | 43% | 912.4 hPa | 0 mm | - | 0 W/m² | - |
| 1777694075 | 18.89° C | 41% | 912.2 hPa | 0 mm | - | 0 W/m² | - |
| 1777693154 | 20° C | 39% | 912.2 hPa | 0 mm | - | 0 W/m² | - |
| 1777692242 | 20.56° C | 37% | 912 hPa | 0 mm | - | 0 W/m² | - |
| 1777691323 | 21.11° C | 36% | 911.7 hPa | 0 mm | - | 0 W/m² | - |
| 1777690430 | 21.11° C | 35% | 911.8 hPa | 0 mm | - | 7 W/m² | - |
| 1777689549 | 21.67° C | 36% | 911.5 hPa | 0 mm | - | 14 W/m² | - |
| 1777688633 | 22.78° C | 32% | 911.2 hPa | 0 mm | - | 21 W/m² | - |
| 1777687728 | 23.33° C | 28% | 911.1 hPa | 0 mm | - | 33 W/m² | - |
* Rain latest hour (hover to see other rain measurements)
** Current wind speed in m/s (hover to see current wind gust speed)